Location: Brusselsch Zeekanaal
(50.8667°N, 4.3667°E)
Time: 10:19:52
(UTC+00:00)

Cosmos 1420 Rocket - Pass Details

Date: 08 November 2025
Orbit: 750 x 776 km, 74.0° (Epoch: 11 December)

Event Time Altitude Azimuth Distance (km) Brightness Sun altitude
Rises 05:38:19 0° 202° (SSW) 3,225 7.1 -11.0°
Reaches altitude 10° 05:40:40 10° 203° (SSW) 2,307 6.4 -10.6°
Maximum altitude 05:45:56 89° 295° (WNW) 781 4.0 -9.8°
Drops below altitude 10° 05:51:16 10° 24° (NNE) 2,336 6.6 -9.0°
Sets 05:53:39 0° 25° (NNE) 3,269 7.4 -8.6°
